Left ArrowRight Arrow

39.36473, -99.84206

Hourly Observations for June 24, 2024

Temp ( °F °C ) Dew Point ( °F °C ) Humidity (%) Winds ( mph kmh ) Pressure ( in mb ) Visibility ( mi km ) Precip ( " mm )
12:53 am 00:53 Clear 79 26.1 60 15.6 52 52 SW 7 11 29.80 1009 10 16 0.00 0.00
1:53 am 01:53 Clear 79 26.1 62 16.7 56 56 SW 7 11 29.80 1009 10 16 0.00 0.00
2:53 am 02:53 Clear 79 26.1 62 16.7 56 56 SSW 9 15 29.79 1009 10 16 0.00 0.00
3:53 am 03:53 Clear 78 25.6 63 17.2 60 60 SW 8 13 29.77 1008 10 16 0.00 0.00
4:53 am 04:53 Clear 77 25 63 17.2 62 62 SW 5 7 29.75 1008 10 16 0.00 0.00
5:53 am 05:53 Clear 74 23.3 63 17.2 69 69 WSW 6 9 29.76 1008 10 16 0.00 0.00
6:53 am 06:53 Sunny 75 23.9 63 17.2 66 66 SW 8 13 29.76 1008 10 16 0.00 0.00
7:53 am 07:53 Sunny 78 25.6 63 17.2 60 60 Calm 29.77 1008 10 16 0.00 0.00
8:53 am 08:53 Sunny 88 31.1 63 17.2 43 43 WSW 8 13 29.76 1008 10 16 0.00 0.00
9:53 am 09:53 Sunny 95 35 64 17.8 36 36 SSW 10 17 29.75 1008 10 16 0.00 0.00
10:53 am 10:53 Sunny 98 36.7 61 16.1 30 30 SSW 15 24 29.74 1007 10 16 0.00 0.00
11:53 am 11:53 Sunny 101 38.3 61 16.1 27 27 SSW 13 20 29.74 1007 10 16 0.00 0.00
12:53 pm 12:53 Sunny 104 40 60 15.6 24 24 SSW 12 19 29.72 1006 10 16 0.00 0.00
1:53 pm 13:53 Sunny 106 41.1 58 14.4 21 21 SSW 17 28 29.70 1006 10 16 0.00 0.00
2:53 pm 14:53 Mostly Sunny 108 42.2 57 13.9 19 19 SW 14 22 29.67 1005 10 16 0.00 0.00
3:53 pm 15:53 Mostly Sunny 108 42.2 55 12.8 18 18 SSW 16 26 29.66 1004 10 16 0.00 0.00
4:53 pm 16:53 Sunny 107 41.7 56 13.3 19 19 S 22 35 29.64 1004 10 16 0.00 0.00
5:53 pm 17:53 Sunny 105 40.6 55 12.8 19 19 S 22 35 29.63 1004 10 16 0.00 0.00
6:53 pm 18:53 Sunny 102 38.9 58 14.4 24 24 S 22 35 29.64 1004 10 16 0.00 0.00
7:53 pm 19:53 Sunny 98 36.7 58 14.4 27 27 S 20 31 29.65 1004 10 16 0.00 0.00
8:53 pm 20:53 Partly Cloudy 86 30 61 16.1 43 43 NNW 17 28 29.75 1007 9 14 0.00 0.00
9:00 pm 21:00 Mostly Sunny 88 31.1 61 16.1 41 41 N 10 17 29.69 1005 10 16 0.00 0.00
9:08 pm 21:08 Partly Cloudy with Nearby Thunderstorms 84 28.9 63 17.2 49 49 NNE 16 26 29.71 1006 10 16 0.01 0.13
9:53 pm 21:53 Clear 81 27.2 64 17.8 57 57 E 13 20 29.76 1008 10 16 0.01 0.13
10:30 pm 22:30 Mostly Clear with Nearby Thunderstorms 82 27.8 63 17.2 53 53 Calm 29.76 1008 10 16 0.00 0.00
10:44 pm 22:44 Mostly Clear with Light Rain 81 27.2 64 17.8 57 57 E 8 13 29.79 1009 10 16 0.01 0.13
10:53 pm 22:53 Mostly Clear with Light Rain 82 27.8 62 16.7 51 51 E 8 13 29.81 1009 10 16 0.01 0.13
11:53 pm 23:53 Clear 84 28.9 58 14.4 41 41 SSE 14 22 29.78 1008 10 16 0.01 0.13

Powered by Vaisala Xweather